EPKKEPWR

Guest
Details From EPKK - BALICE
To EPWR - STRACHOWICE
Flight Number -
Tags generated
Created
Modified
Stats Distance 127 nm / 235 km
Max Altitude 9,300 ft / 2,835 m
Waypoints 3
Social Downloads 0
Likes 0
Share VATSIM

Download

Looking for another format? Having issues loading an existing format? Contact us
Advertisement - Login to hide

Notes

Basic altitude profile: - Ascent Rate: 2500ft/min - Ascent Speed: 250kts - Cruise Altitude: 18000ft - Cruise Speed: 420kts - Descent Rate: 1500ft/min - Descent Speed: 250kts Options: - Use NATs: yes - Use PACOTS: yes - Use low airways: yes - Use high airways: no

Route

EPKK SABAB EPWR

ID Type Via Altitude (ft/m) Position (lat/lon) Dist (leg/tot) Name
O EPKK APT - 0 / 0 50.07782 / 19.78550 - / 0 nm BALICE
SABAB FIX - 9,300 / 2,835 50.77028 / 17.89917 83 / 83 nm
O EPWR APT - 0 / 0 51.10388 / 16.88189 43 / 126 nm STRACHOWICE

Altitude Profile

Advertisement - Login to hide

EPKK

Details ICAO EPKK (KRK)
Name Krakow John Paul II
Region Poland
Timezone Europe/Warsaw (UTC+2.0)
Stats Elevation 791 ft / 241 m (AMSL)
Location 50.077800° 19.785500°
Runways 1
Magnetic Variation 5.408° E

METAR

EPKK 210030Z 01004KT 330V040 7000 SCT004 19/18 Q1018

Decode

TAF

TAF EPKK 202330Z 2100/2124 06006KT 9999 BKN025 BECMG 2100/2103 25013KT 3000 BR BKN004 BECMG 2106/2109 7000 BKN008 BECMG 2109/2112 32007KT BKN018 PROB30 TEMPO 2115/2124 SCT030CB

Decode

Departure Runways

ID Width Length Bearing (true/mag) Surface Threshold Overrun Markings Lighting
07 197 ft / 60 m 8,374 ft / 2,552 m 77.75° / 72.34° CONCRETE 0 ft / 0 m 0 ft / 0 m PREC-APP CENTERLINE EDGE THRESHOLD SALS REIL-OMNI
25 197 ft / 60 m 8,374 ft / 2,552 m 257.77° / 252.37° CONCRETE 778 ft / 237 m 0 ft / 0 m PREC-APP CENTERLINE EDGE THRESHOLD ALSF-I REIL-OMNI

EPWR

Details ICAO EPWR (WRO)
Name Wroclaw-Copernicus Int'l
Region Poland
Timezone Europe/Warsaw (UTC+2.0)
Stats Elevation 403 ft / 123 m (AMSL)
Location 51.103900° 16.881900°
Runways 1
Magnetic Variation 4.827° E

METAR

EPWR 210030Z 32011KT 9999 FEW006 SCT009 BKN017 17/16 Q1022

Decode

TAF

TAF EPWR 202330Z 2100/2124 32006KT 6000 -RA BKN025 TEMPO 2100/2109 3000 SHRA BKN009 BKN020CB BECMG 2101/2103 BKN004 BECMG 2109/2111 CAVOK

Decode

Destination Runways

ID Width Length Bearing (true/mag) Surface Threshold Overrun Markings Lighting
12 148 ft / 45 m 8,220 ft / 2,506 m 115.99° / 111.17° CONCRETE 0 ft / 0 m 108 ft / 33 m PREC-APP EDGE THRESHOLD SALS
30 148 ft / 45 m 8,220 ft / 2,506 m 296.02° / 291.19° CONCRETE 0 ft / 0 m 92 ft / 28 m PREC-APP EDGE THRESHOLD CALVERT

Approach Navaids

Runway Type Ident Frequency Range Bearing (true/mag) Slope Elevation
30 LOC-ILS WRO 110.30 MHz 18 nm / 33 km 296.01° / 291.18 ° - 403 ft / 123 m (AMSL)
30 GS WRO 110.30 MHz 10 nm / 19 km 296.01° / 291.18 ° 3.00° 403 ft / 123 m (AMSL)
30 OM OM - - 296.00° / 291.17 ° - 404 ft / 123 m (AMSL)
30 DME WRO 110.30 MHz 18 nm / 33 km - - 394 ft / 120 m (AMSL)

Popular Alternatives